ASX415 LIRJ-LIEA

Flight info

Callsign ASX415
Flight time 1h 58m
Altitude 11000
Route BTA L146 LIBLO A9 AJO M194 REVDO
Aircraft ECHO/L-SFG/C

Departure

Time 2026-05-05 09:42
Airport Marina di Campo Airport (LIRJ)

Arrival

Time 2026-05-05 11:40
Airport Alghero-Fertilia Airport (LIEA)
Time Latitude Longitude Altitude Speed Heading
2026-05-05 09:38 42.76242 10.23830 25 ft 0 kts 98°
2026-05-05 09:38 42.76242 10.23833 25 ft 0 kts 103°
2026-05-05 09:39 42.76247 10.23874 25 ft 9 kts 96°
2026-05-05 09:39 42.76181 10.23934 26 ft 18 kts 156°
2026-05-05 09:39 42.76022 10.24010 25 ft 29 kts 161°
2026-05-05 09:39 42.75857 10.24085 23 ft 23 kts 163°
2026-05-05 09:40 42.75720 10.24141 21 ft 18 kts 173°
2026-05-05 09:40 42.75657 10.24178 22 ft 6 kts 320°
2026-05-05 09:40 42.75661 10.24173 22 ft 0 kts 333°
2026-05-05 09:40 42.75698 10.24154 22 ft 23 kts 339°
2026-05-05 09:41 42.75987 10.24023 25 ft 62 kts 342°
2026-05-05 09:41 42.76438 10.23795 136 ft 72 kts 333°
2026-05-05 09:41 42.76897 10.23593 277 ft 74 kts
2026-05-05 09:41 42.77210 10.24031 436 ft 64 kts 97°
2026-05-05 09:42 42.77164 10.24649 465 ft 73 kts 95°
2026-05-05 09:42 42.76904 10.25151 609 ft 71 kts 155°
2026-05-05 09:42 42.76520 10.25426 770 ft 61 kts 176°
2026-05-05 09:42 42.76173 10.25308 1018 ft 55 kts 219°
2026-05-05 09:43 42.75967 10.24953 1279 ft 55 kts 243°
2026-05-05 09:43 42.75864 10.24464 1526 ft 50 kts 252°
2026-05-05 09:43 42.75750 10.24028 1723 ft 47 kts 237°
2026-05-05 09:43 42.75581 10.23620 1822 ft 61 kts 243°
2026-05-05 09:44 42.75498 10.22809 1484 ft 92 kts 266°
2026-05-05 09:44 42.75279 10.22085 1499 ft 83 kts 243°
2026-05-05 09:44 42.74990 10.21415 1410 ft 81 kts 240°
2026-05-05 09:44 42.74676 10.20729 1332 ft 91 kts 236°
2026-05-05 09:45 42.74305 10.19993 1204 ft 103 kts 237°
2026-05-05 09:45 42.74190 10.19131 1281 ft 95 kts 302°
2026-05-05 09:45 42.74629 10.18607 1348 ft 85 kts 280°
2026-05-05 09:45 42.74350 10.17798 1228 ft 99 kts 239°
2026-05-05 09:46 42.73974 10.17045 1299 ft 94 kts 236°
2026-05-05 09:46 42.73709 10.16290 1472 ft 84 kts 251°
2026-05-05 09:46 42.73562 10.15557 1648 ft 79 kts 277°
2026-05-05 09:46 42.73675 10.14857 1779 ft 77 kts 257°
2026-05-05 09:47 42.73502 10.14199 1964 ft 72 kts 253°
2026-05-05 09:47 42.73358 10.13556 2138 ft 75 kts 254°
2026-05-05 09:47 42.73206 10.12836 2229 ft 79 kts 251°
2026-05-05 09:47 42.73031 10.12121 2363 ft 80 kts 250°
2026-05-05 09:48 42.72844 10.11404 2495 ft 81 kts 249°
2026-05-05 09:48 42.72658 10.10695 2617 ft 81 kts 249°
2026-05-05 09:48 42.72472 10.09974 2748 ft 81 kts 250°
2026-05-05 09:48 42.72292 10.09247 2875 ft 81 kts 250°
2026-05-05 09:49 42.72115 10.08519 2992 ft 82 kts 250°
2026-05-05 09:49 42.71941 10.07778 3104 ft 81 kts 250°
2026-05-05 09:49 42.71784 10.07071 3271 ft 75 kts 250°
2026-05-05 09:49 42.71644 10.06429 3421 ft 67 kts 250°
2026-05-05 09:50 42.71517 10.05842 3536 ft 64 kts 250°
2026-05-05 09:50 42.71394 10.05268 3630 ft 64 kts 250°
2026-05-05 09:50 42.71271 10.04684 3734 ft 64 kts 250°
2026-05-05 09:50 42.71149 10.04105 3826 ft 64 kts 250°
2026-05-05 09:51 42.71028 10.03528 3946 ft 64 kts 250°
2026-05-05 09:51 42.70910 10.02943 4091 ft 64 kts 251°
2026-05-05 09:51 42.70793 10.02369 4246 ft 63 kts 251°
2026-05-05 09:51 42.70678 10.01795 4384 ft 62 kts 251°
2026-05-05 09:52 42.70565 10.01226 4497 ft 63 kts 251°
2026-05-05 09:52 42.70452 10.00651 4602 ft 62 kts 251°
2026-05-05 09:52 42.70342 10.00086 4687 ft 63 kts 251°
2026-05-05 09:52 42.70233 9.99516 4780 ft 62 kts 252°
2026-05-05 09:53 42.70124 9.98945 4856 ft 62 kts 252°
2026-05-05 09:53 42.69996 9.98389 4931 ft 62 kts 244°
2026-05-05 09:53 42.69823 9.97854 5008 ft 61 kts 245°
2026-05-05 09:53 42.69656 9.97320 5087 ft 62 kts 245°
2026-05-05 09:54 42.69501 9.96780 5170 ft 60 kts 246°
2026-05-05 09:54 42.69140 9.96507 5173 ft 68 kts 193°
2026-05-05 09:54 42.68723 9.96316 5283 ft 62 kts 210°
2026-05-05 09:54 42.68334 9.96043 5367 ft 62 kts 214°
2026-05-05 09:55 42.67970 9.95756 5460 ft 62 kts 215°
2026-05-05 09:55 42.67598 9.95456 5554 ft 61 kts 215°
2026-05-05 09:55 42.67229 9.95165 5642 ft 62 kts 215°
2026-05-05 09:55 42.66857 9.94877 5730 ft 61 kts 214°
2026-05-05 09:56 42.66483 9.94592 5825 ft 62 kts 215°
2026-05-05 09:56 42.66110 9.94311 5920 ft 61 kts 215°
2026-05-05 09:56 42.65736 9.94028 5999 ft 62 kts 215°
2026-05-05 09:56 42.65362 9.93743 6081 ft 62 kts 216°
2026-05-05 09:57 42.64990 9.93457 6179 ft 61 kts 216°
2026-05-05 09:57 42.64619 9.93174 6262 ft 61 kts 216°
2026-05-05 09:57 42.64249 9.92896 6341 ft 62 kts 216°
2026-05-05 09:57 42.63874 9.92612 6420 ft 62 kts 216°
2026-05-05 09:58 42.63501 9.92328 6494 ft 62 kts 216°
2026-05-05 09:58 42.63125 9.92042 6570 ft 62 kts 216°
2026-05-05 09:58 42.62732 9.91738 6550 ft 75 kts 217°
2026-05-05 09:58 42.62234 9.91344 6460 ft 87 kts 214°
2026-05-05 09:59 42.61698 9.90947 6411 ft 90 kts 214°
2026-05-05 09:59 42.61134 9.90527 6267 ft 97 kts 214°
2026-05-05 09:59 42.60537 9.90077 6121 ft 98 kts 213°
2026-05-05 09:59 42.59958 9.89643 6041 ft 93 kts 213°
2026-05-05 10:00 42.59407 9.89228 5994 ft 89 kts 214°
2026-05-05 10:00 42.58879 9.88826 5974 ft 85 kts 214°
2026-05-05 10:00 42.58375 9.88444 5964 ft 82 kts 214°
2026-05-05 10:00 42.57834 9.88021 5623 ft 105 kts 215°
2026-05-05 10:01 42.57198 9.87531 5280 ft 100 kts 213°
2026-05-05 10:01 42.56638 9.87125 5098 ft 87 kts 214°
2026-05-05 10:01 42.56132 9.86750 4916 ft 80 kts 216°
2026-05-05 10:01 42.55661 9.86389 4725 ft 77 kts 216°
2026-05-05 10:02 42.55148 9.85983 4556 ft 92 kts 215°
2026-05-05 10:02 42.54590 9.85562 4509 ft 90 kts 214°
2026-05-05 10:02 42.54046 9.85157 4493 ft 89 kts 214°
2026-05-05 10:02 42.53511 9.84757 4483 ft 87 kts 215°
2026-05-05 10:03 42.52984 9.84353 4478 ft 87 kts 215°
2026-05-05 10:03 42.52639 9.84088 4471 ft 86 kts 215°
2026-05-05 10:03 42.51953 9.83566 4465 ft 85 kts 214°
2026-05-05 10:03 42.51435 9.83173 4463 ft 86 kts 214°
2026-05-05 10:04 42.50907 9.82775 4463 ft 87 kts 214°
2026-05-05 10:04 42.50377 9.82376 4464 ft 88 kts 214°
2026-05-05 10:04 42.49840 9.81968 4473 ft 89 kts 214°
2026-05-05 10:04 42.49292 9.81551 4482 ft 91 kts 213°
2026-05-05 10:05 42.48925 9.81274 4480 ft 91 kts 213°
2026-05-05 10:05 42.48374 9.80859 4471 ft 90 kts 213°
2026-05-05 10:05 42.47655 9.80317 4466 ft 89 kts 214°
2026-05-05 10:05 42.47114 9.79906 4454 ft 91 kts 214°
2026-05-05 10:06 42.46527 9.79454 4310 ft 101 kts 213°
2026-05-05 10:06 42.46109 9.79135 4214 ft 103 kts 213°
2026-05-05 10:06 42.45487 9.78672 4092 ft 103 kts 212°
2026-05-05 10:06 42.44871 9.78213 4043 ft 99 kts 212°
2026-05-05 10:07 42.44275 9.77767 4006 ft 96 kts 212°
2026-05-05 10:07 42.43702 9.77335 3991 ft 93 kts 213°
2026-05-05 10:07 42.43140 9.76909 3981 ft 92 kts 213°
2026-05-05 10:07 42.42585 9.76488 3976 ft 91 kts 213°
2026-05-05 10:08 42.42036 9.76069 3973 ft 90 kts 213°
2026-05-05 10:08 42.41490 9.75656 3972 ft 90 kts 212°
2026-05-05 10:08 42.40950 9.75255 3973 ft 90 kts 213°
2026-05-05 10:08 42.40404 9.74841 3975 ft 90 kts 212°
2026-05-05 10:09 42.39859 9.74427 3973 ft 90 kts 212°
2026-05-05 10:09 42.39315 9.74017 3973 ft 89 kts 212°
2026-05-05 10:09 42.38776 9.73614 3971 ft 89 kts 212°
2026-05-05 10:09 42.38236 9.73208 3973 ft 89 kts 213°
2026-05-05 10:10 42.37696 9.72799 3977 ft 89 kts 213°
2026-05-05 10:10 42.37158 9.72391 3973 ft 88 kts 213°
2026-05-05 10:10 42.36623 9.71987 3969 ft 88 kts 213°
2026-05-05 10:10 42.36086 9.71587 3971 ft 88 kts 212°
2026-05-05 10:11 42.35554 9.71188 3972 ft 89 kts 213°
2026-05-05 10:11 42.35004 9.70769 3868 ft 98 kts 213°
2026-05-05 10:11 42.34344 9.70253 3432 ft 116 kts 212°
2026-05-05 10:11 42.33643 9.69736 3193 ft 112 kts 210°
2026-05-05 10:12 42.32977 9.69253 3069 ft 106 kts 210°
2026-05-05 10:12 42.32351 9.68789 3013 ft 100 kts 211°
2026-05-05 10:12 42.31755 9.68340 2983 ft 97 kts 211°
2026-05-05 10:12 42.31174 9.67892 2973 ft 96 kts 211°
2026-05-05 10:13 42.30600 9.67460 2956 ft 93 kts 211°
2026-05-05 10:13 42.30045 9.67047 2961 ft 92 kts 211°
2026-05-05 10:13 42.29485 9.66628 2955 ft 92 kts 211°
2026-05-05 10:13 42.28926 9.66201 2961 ft 92 kts 211°
2026-05-05 10:14 42.28368 9.65781 2965 ft 92 kts 211°
2026-05-05 10:14 42.27809 9.65365 2956 ft 92 kts 211°
2026-05-05 10:14 42.27251 9.64944 2963 ft 92 kts 211°
2026-05-05 10:14 42.26692 9.64525 2964 ft 92 kts 211°
2026-05-05 10:15 42.26129 9.64106 2969 ft 93 kts 211°
2026-05-05 10:15 42.25571 9.63683 2970 ft 93 kts 211°
2026-05-05 10:15 42.25005 9.63261 2968 ft 93 kts 211°
2026-05-05 10:15 42.24431 9.62827 2903 ft 100 kts 211°
2026-05-05 10:16 42.23797 9.62345 2773 ft 108 kts 210°
2026-05-05 10:16 42.23131 9.61855 2639 ft 109 kts 210°
2026-05-05 10:16 42.22459 9.61361 2486 ft 110 kts 210°
2026-05-05 10:16 42.21786 9.60893 2310 ft 108 kts 204°
2026-05-05 10:17 42.21074 9.60546 2136 ft 109 kts 201°
2026-05-05 10:17 42.20385 9.60230 2038 ft 101 kts 203°
2026-05-05 10:17 42.19746 9.59878 1992 ft 97 kts 207°
2026-05-05 10:17 42.19140 9.59530 1973 ft 95 kts 206°
2026-05-05 10:18 42.18532 9.59184 1968 ft 95 kts 205°
2026-05-05 10:18 42.17883 9.58838 1793 ft 103 kts 204°
2026-05-05 10:18 42.17212 9.58478 1623 ft 103 kts 204°
2026-05-05 10:18 42.16555 9.58117 1540 ft 102 kts 204°
2026-05-05 10:19 42.15894 9.57796 1537 ft 99 kts 200°
2026-05-05 10:19 42.15258 9.57493 1546 ft 96 kts 206°
2026-05-05 10:19 42.14648 9.57101 1562 ft 97 kts 209°
2026-05-05 10:19 42.14040 9.56701 1570 ft 98 kts 205°
2026-05-05 10:20 42.13405 9.56369 1536 ft 100 kts 203°
2026-05-05 10:20 42.12758 9.56072 1516 ft 96 kts 202°
2026-05-05 10:20 42.12148 9.55771 1518 ft 92 kts 202°
2026-05-05 10:20 42.11549 9.55488 1528 ft 91 kts 202°
2026-05-05 10:21 42.10968 9.55127 1561 ft 93 kts 209°
2026-05-05 10:21 42.10405 9.54735 1663 ft 88 kts 207°
2026-05-05 10:21 42.09812 9.54411 1596 ft 94 kts 202°
2026-05-05 10:21 42.09199 9.54128 1529 ft 91 kts 200°
2026-05-05 10:22 42.08621 9.53886 1493 ft 86 kts 201°
2026-05-05 10:22 42.08071 9.53596 1462 ft 83 kts 204°
2026-05-05 10:22 42.07557 9.53302 1449 ft 78 kts 204°
2026-05-05 10:22 42.07056 9.53021 1458 ft 78 kts 205°
2026-05-05 10:23 42.06554 9.52736 1456 ft 80 kts 204°
2026-05-05 10:23 42.06023 9.52451 1465 ft 85 kts 204°
2026-05-05 10:23 42.05467 9.52155 1465 ft 87 kts 204°
2026-05-05 10:23 42.04894 9.51845 1485 ft 91 kts 203°
2026-05-05 10:24 42.04298 9.51514 1545 ft 93 kts 205°
2026-05-05 10:24 42.03698 9.51184 1538 ft 95 kts 202°
2026-05-05 10:24 42.03083 9.50887 1509 ft 95 kts 203°
2026-05-05 10:24 42.02475 9.50567 1489 ft 93 kts 204°
2026-05-05 10:25 42.01875 9.50237 1481 ft 93 kts 205°
2026-05-05 10:25 42.01275 9.49899 1481 ft 93 kts 204°
2026-05-05 10:25 42.00705 9.49616 1473 ft 85 kts 208°
2026-05-05 10:25 42.00167 9.49326 1475 ft 83 kts 211°
2026-05-05 10:26 41.99640 9.49022 1471 ft 82 kts 208°
2026-05-05 10:26 41.99111 9.48723 1467 ft 83 kts 206°
2026-05-05 10:26 41.98575 9.48448 1457 ft 82 kts 206°
2026-05-05 10:26 41.98055 9.48173 1451 ft 81 kts 206°
2026-05-05 10:27 41.97527 9.47902 1456 ft 82 kts 206°
2026-05-05 10:27 41.96999 9.47616 1448 ft 82 kts 206°
2026-05-05 10:27 41.96472 9.47319 1449 ft 82 kts 205°
2026-05-05 10:27 41.95920 9.47125 1458 ft 82 kts 193°
2026-05-05 10:28 41.95350 9.47152 1456 ft 82 kts 186°
2026-05-05 10:28 41.94790 9.47252 1445 ft 80 kts 184°
2026-05-05 10:28 41.94234 9.47354 1441 ft 82 kts 182°
2026-05-05 10:28 41.93655 9.47428 1451 ft 85 kts 183°
2026-05-05 10:29 41.93067 9.47514 1457 ft 85 kts 184°
2026-05-05 10:29 41.92477 9.47613 1460 ft 86 kts 183°
2026-05-05 10:29 41.91894 9.47694 1449 ft 85 kts 183°
2026-05-05 10:29 41.91302 9.47766 1454 ft 85 kts 183°
2026-05-05 10:30 41.90704 9.47809 1460 ft 87 kts 183°
2026-05-05 10:30 41.90096 9.47848 1459 ft 86 kts 184°
2026-05-05 10:30 41.89517 9.47913 1448 ft 81 kts 185°
2026-05-05 10:30 41.88968 9.48003 1440 ft 79 kts 185°
2026-05-05 10:31 41.88419 9.48107 1445 ft 80 kts 181°
2026-05-05 10:31 41.87863 9.48193 1443 ft 79 kts 182°
2026-05-05 10:31 41.87324 9.48204 1435 ft 77 kts 190°
2026-05-05 10:31 41.86805 9.48184 1443 ft 76 kts 192°
2026-05-05 10:32 41.86259 9.48148 1456 ft 81 kts 193°
2026-05-05 10:32 41.85693 9.48098 1464 ft 82 kts 193°
2026-05-05 10:32 41.85128 9.48058 1472 ft 81 kts 194°
2026-05-05 10:32 41.84567 9.48028 1467 ft 81 kts 194°
2026-05-05 10:33 41.84005 9.48000 1465 ft 80 kts 193°
2026-05-05 10:33 41.83452 9.47971 1462 ft 79 kts 193°
2026-05-05 10:33 41.82897 9.47935 1462 ft 80 kts 193°
2026-05-05 10:33 41.82342 9.47873 1470 ft 80 kts 198°
2026-05-05 10:34 41.81801 9.47705 1477 ft 82 kts 201°
2026-05-05 10:34 41.81244 9.47481 1478 ft 85 kts 203°
2026-05-05 10:34 41.80691 9.47251 1473 ft 81 kts 205°
2026-05-05 10:34 41.80160 9.47047 1460 ft 76 kts 213°
2026-05-05 10:35 41.79740 9.46639 1468 ft 76 kts 221°
2026-05-05 10:35 41.79315 9.46212 1455 ft 78 kts 216°
2026-05-05 10:35 41.78854 9.45768 1404 ft 82 kts 217°
2026-05-05 10:35 41.78392 9.45345 1405 ft 77 kts 216°
2026-05-05 10:36 41.77947 9.44963 1349 ft 83 kts 218°
2026-05-05 10:36 41.77416 9.44541 1169 ft 92 kts 214°
2026-05-05 10:36 41.76845 9.44132 1057 ft 93 kts 209°
2026-05-05 10:36 41.76281 9.43715 1000 ft 91 kts 211°
2026-05-05 10:37 41.75708 9.43396 984 ft 89 kts 204°
2026-05-05 10:37 41.75102 9.43132 984 ft 92 kts 204°
2026-05-05 10:37 41.74480 9.42865 1004 ft 97 kts 206°
2026-05-05 10:37 41.73832 9.42619 1027 ft 98 kts 205°
2026-05-05 10:38 41.73182 9.42342 1010 ft 98 kts 205°
2026-05-05 10:38 41.72536 9.42101 987 ft 95 kts 205°
2026-05-05 10:38 41.71908 9.41908 1004 ft 92 kts 204°
2026-05-05 10:38 41.71271 9.41715 1028 ft 97 kts 202°
2026-05-05 10:39 41.70611 9.41484 1009 ft 98 kts 204°
2026-05-05 10:39 41.69954 9.41244 1000 ft 99 kts 203°
2026-05-05 10:39 41.69305 9.41021 1003 ft 96 kts 201°
2026-05-05 10:39 41.68648 9.40767 1005 ft 97 kts 198°
2026-05-05 10:40 41.68102 9.40254 1021 ft 98 kts 217°
2026-05-05 10:40 41.67528 9.39755 1057 ft 101 kts 215°
2026-05-05 10:40 41.66918 9.39304 1082 ft 104 kts 213°
2026-05-05 10:40 41.66277 9.38852 1051 ft 102 kts 216°
2026-05-05 10:41 41.65648 9.38443 1035 ft 98 kts 212°
2026-05-05 10:41 41.65051 9.38012 1089 ft 101 kts 214°
2026-05-05 10:41 41.64461 9.37509 1077 ft 102 kts 223°
2026-05-05 10:41 41.63926 9.36939 1032 ft 95 kts 227°
2026-05-05 10:42 41.62934 9.35973 950 ft 88 kts 190°
2026-05-05 10:42 41.62327 9.36061 954 ft 91 kts 180°
2026-05-05 10:42 41.61694 9.36140 959 ft 92 kts 182°
2026-05-05 10:43 41.61057 9.36233 970 ft 93 kts 180°
2026-05-05 10:43 41.60405 9.36273 978 ft 94 kts 185°
2026-05-05 10:43 41.59750 9.36342 986 ft 95 kts 183°
2026-05-05 10:43 41.59092 9.36420 995 ft 95 kts 183°
2026-05-05 10:44 41.58439 9.36495 980 ft 93 kts 183°
2026-05-05 10:44 41.57807 9.36581 959 ft 90 kts 183°
2026-05-05 10:44 41.57186 9.36680 959 ft 90 kts 184°
2026-05-05 10:44 41.56573 9.36817 967 ft 90 kts 181°
2026-05-05 10:45 41.55961 9.36930 957 ft 89 kts 182°
2026-05-05 10:45 41.55359 9.37042 946 ft 84 kts 187°
2026-05-05 10:45 41.54789 9.37101 948 ft 81 kts 190°
2026-05-05 10:45 41.54218 9.37121 967 ft 83 kts 192°
2026-05-05 10:46 41.53630 9.37102 967 ft 85 kts 192°
2026-05-05 10:46 41.53049 9.37070 969 ft 82 kts 191°
2026-05-05 10:46 41.52473 9.37017 969 ft 84 kts 192°
2026-05-05 10:46 41.51895 9.36952 958 ft 81 kts 189°
2026-05-05 10:47 41.51350 9.37019 944 ft 79 kts 185°
2026-05-05 10:47 41.50800 9.37102 951 ft 81 kts 185°
2026-05-05 10:47 41.50229 9.37198 969 ft 85 kts 184°
2026-05-05 10:47 41.49629 9.37302 977 ft 89 kts 184°
2026-05-05 10:48 41.49014 9.37431 981 ft 90 kts 184°
2026-05-05 10:48 41.48400 9.37585 980 ft 90 kts 184°
2026-05-05 10:48 41.47781 9.37738 978 ft 90 kts 182°
2026-05-05 10:48 41.47155 9.37844 966 ft 90 kts 184°
2026-05-05 10:49 41.46544 9.37935 941 ft 86 kts 182°
2026-05-05 10:49 41.45977 9.37956 924 ft 80 kts 194°
2026-05-05 10:49 41.45435 9.37903 920 ft 76 kts 197°
2026-05-05 10:49 41.44916 9.37829 918 ft 74 kts 201°
2026-05-05 10:50 41.44414 9.37755 913 ft 72 kts 200°
2026-05-05 10:50 41.43918 9.37649 913 ft 73 kts 201°
2026-05-05 10:50 41.43397 9.37574 947 ft 78 kts 197°
2026-05-05 10:50 41.42836 9.37521 967 ft 84 kts 193°
2026-05-05 10:51 41.42237 9.37480 977 ft 88 kts 192°
2026-05-05 10:51 41.41625 9.37450 974 ft 88 kts 192°
2026-05-05 10:51 41.41017 9.37393 975 ft 90 kts 193°
2026-05-05 10:51 41.40395 9.37341 960 ft 89 kts 194°
2026-05-05 10:52 41.39791 9.37288 942 ft 86 kts 196°
2026-05-05 10:52 41.39200 9.37229 934 ft 85 kts 192°
2026-05-05 10:52 41.38598 9.37176 947 ft 88 kts 192°
2026-05-05 10:52 41.37979 9.37137 958 ft 89 kts 192°
2026-05-05 10:53 41.37351 9.37080 988 ft 93 kts 194°
2026-05-05 10:53 41.36698 9.37005 1005 ft 96 kts 192°
2026-05-05 10:53 41.36026 9.36936 1009 ft 97 kts 189°
2026-05-05 10:53 41.35350 9.36902 990 ft 96 kts 190°
2026-05-05 10:54 41.34699 9.36848 979 ft 94 kts 192°
2026-05-05 10:54 41.34051 9.36787 972 ft 93 kts 193°
2026-05-05 10:54 41.33414 9.36725 964 ft 91 kts 194°
2026-05-05 10:54 41.32788 9.36664 952 ft 89 kts 192°
2026-05-05 10:55 41.32169 9.36609 959 ft 90 kts 192°
2026-05-05 10:55 41.31548 9.36559 948 ft 89 kts 191°
2026-05-05 10:55 41.30940 9.36511 952 ft 87 kts 192°
2026-05-05 10:55 41.30331 9.36459 956 ft 88 kts 193°
2026-05-05 10:56 41.29718 9.36404 945 ft 88 kts 193°
2026-05-05 10:56 41.29118 9.36357 951 ft 86 kts 194°
2026-05-05 10:56 41.28531 9.36293 950 ft 86 kts 194°
2026-05-05 10:56 41.27931 9.36234 941 ft 84 kts 194°
2026-05-05 10:57 41.27397 9.36032 957 ft 79 kts 207°
2026-05-05 10:57 41.26874 9.35772 969 ft 82 kts 207°
2026-05-05 10:57 41.26338 9.35480 978 ft 84 kts 206°
2026-05-05 10:57 41.25787 9.35186 980 ft 86 kts 208°
2026-05-05 10:58 41.25236 9.34884 952 ft 85 kts 208°
2026-05-05 10:58 41.24706 9.34602 873 ft 78 kts 219°
2026-05-05 10:58 41.24260 9.34074 643 ft 98 kts 229°
2026-05-05 10:58 41.23826 9.33454 791 ft 87 kts 229°
2026-05-05 10:59 41.23434 9.32866 887 ft 84 kts 234°
2026-05-05 10:59 41.23093 9.32254 929 ft 80 kts 240°
2026-05-05 10:59 41.22797 9.31654 931 ft 76 kts 240°
2026-05-05 10:59 41.22495 9.31059 955 ft 79 kts 240°
2026-05-05 11:00 41.22180 9.30451 960 ft 81 kts 239°
2026-05-05 11:00 41.21847 9.29842 971 ft 81 kts 238°
2026-05-05 11:00 41.21538 9.29256 989 ft 72 kts 239°
2026-05-05 11:00 41.21260 9.28755 1110 ft 64 kts 238°
2026-05-05 11:01 41.21017 9.28305 1252 ft 58 kts 240°
2026-05-05 11:01 41.20791 9.27867 1358 ft 58 kts 241°
2026-05-05 11:01 41.20557 9.27394 1426 ft 65 kts 240°
2026-05-05 11:01 41.20296 9.26871 1467 ft 70 kts 238°
2026-05-05 11:02 41.19985 9.26318 1500 ft 79 kts 239°
2026-05-05 11:02 41.19671 9.25700 1513 ft 82 kts 238°
2026-05-05 11:02 41.19340 9.25078 1506 ft 82 kts 236°
2026-05-05 11:02 41.18991 9.24465 1485 ft 83 kts 236°
2026-05-05 11:03 41.18657 9.23860 1460 ft 78 kts 234°
2026-05-05 11:03 41.18357 9.23353 1396 ft 70 kts 240°
2026-05-05 11:03 41.18105 9.22795 1431 ft 73 kts 242°
2026-05-05 11:03 41.17837 9.22228 1424 ft 71 kts 239°
2026-05-05 11:04 41.17546 9.21724 1434 ft 68 kts 239°
2026-05-05 11:04 41.17265 9.21210 1438 ft 73 kts 239°
2026-05-05 11:04 41.16958 9.20615 1477 ft 83 kts 237°
2026-05-05 11:04 41.16612 9.19958 1488 ft 89 kts 236°
2026-05-05 11:05 41.16243 9.19273 1502 ft 94 kts 238°
2026-05-05 11:05 41.15865 9.18564 1526 ft 97 kts 237°
2026-05-05 11:05 41.15477 9.17853 1507 ft 94 kts 238°
2026-05-05 11:05 41.15105 9.17163 1495 ft 92 kts 240°
2026-05-05 11:06 41.14747 9.16457 1491 ft 91 kts 240°
2026-05-05 11:06 41.14345 9.15872 1513 ft 80 kts 220°
2026-05-05 11:06 41.13994 9.15240 1482 ft 88 kts 241°
2026-05-05 11:06 41.13676 9.14576 1458 ft 81 kts 238°
2026-05-05 11:07 41.13368 9.13940 1475 ft 86 kts 241°
2026-05-05 11:07 41.13035 9.13269 1597 ft 82 kts 233°
2026-05-05 11:07 41.12663 9.12741 1776 ft 74 kts 225°
2026-05-05 11:07 41.12302 9.12282 1942 ft 71 kts 224°
2026-05-05 11:08 41.11924 9.11847 2151 ft 71 kts 226°
2026-05-05 11:08 41.11572 9.11438 2282 ft 67 kts 223°
2026-05-05 11:08 41.11230 9.11057 2391 ft 62 kts 223°
2026-05-05 11:08 41.10890 9.10680 2451 ft 67 kts 222°
2026-05-05 11:09 41.10506 9.10265 2472 ft 76 kts 222°
2026-05-05 11:09 41.10119 9.09763 2497 ft 81 kts 249°
2026-05-05 11:09 41.10026 9.09023 2514 ft 85 kts 237°
2026-05-05 11:09 41.09593 9.08489 2541 ft 88 kts 221°
2026-05-05 11:10 41.09200 9.07875 2543 ft 90 kts 234°
2026-05-05 11:10 41.08871 9.07147 2544 ft 93 kts 240°
2026-05-05 11:10 41.08579 9.06409 2671 ft 84 kts 243°
2026-05-05 11:10 41.08322 9.05759 2849 ft 77 kts 240°
2026-05-05 11:11 41.08044 9.05152 2938 ft 80 kts 234°
2026-05-05 11:11 41.07705 9.04526 2977 ft 88 kts 235°
2026-05-05 11:11 41.07350 9.03828 3003 ft 93 kts 237°
2026-05-05 11:11 41.06995 9.03110 2999 ft 93 kts 237°
2026-05-05 11:12 41.06652 9.02404 2981 ft 89 kts 236°
2026-05-05 11:12 41.06308 9.01731 2979 ft 89 kts 236°
2026-05-05 11:12 41.05959 9.01045 2981 ft 90 kts 237°
2026-05-05 11:12 41.05610 9.00347 2984 ft 92 kts 237°
2026-05-05 11:13 41.05260 8.99636 2984 ft 92 kts 237°
2026-05-05 11:13 41.04908 8.98923 2986 ft 93 kts 237°
2026-05-05 11:13 41.04549 8.98217 2988 ft 93 kts 237°
2026-05-05 11:13 41.04189 8.97501 2988 ft 94 kts 237°
2026-05-05 11:14 41.03829 8.96793 2990 ft 94 kts 237°
2026-05-05 11:14 41.03471 8.96073 2981 ft 92 kts 237°
2026-05-05 11:14 41.03123 8.95381 2970 ft 89 kts 237°
2026-05-05 11:14 41.02773 8.94692 2982 ft 92 kts 238°
2026-05-05 11:15 41.02447 8.93957 2981 ft 92 kts 245°
2026-05-05 11:15 41.02201 8.93172 2978 ft 92 kts 248°
2026-05-05 11:15 41.01962 8.92393 2984 ft 92 kts 246°
2026-05-05 11:15 41.01688 8.91624 2983 ft 92 kts 245°
2026-05-05 11:16 41.01415 8.90869 2989 ft 93 kts 245°
2026-05-05 11:16 41.01147 8.90102 2983 ft 90 kts 245°
2026-05-05 11:16 41.00888 8.89358 2965 ft 89 kts 244°
2026-05-05 11:16 41.00622 8.88615 2981 ft 90 kts 245°
2026-05-05 11:17 41.00348 8.87857 2982 ft 93 kts 244°
2026-05-05 11:17 41.00073 8.87065 2994 ft 96 kts 245°
2026-05-05 11:17 40.99803 8.86269 2988 ft 94 kts 245°
2026-05-05 11:17 40.99533 8.85487 2980 ft 93 kts 244°
2026-05-05 11:18 40.99267 8.84709 2974 ft 92 kts 243°
2026-05-05 11:18 40.98991 8.83940 2978 ft 93 kts 244°
2026-05-05 11:18 40.98720 8.83176 2980 ft 93 kts 244°
2026-05-05 11:18 40.98456 8.82392 2974 ft 93 kts 244°
2026-05-05 11:19 40.98187 8.81624 2968 ft 92 kts 244°
2026-05-05 11:19 40.97910 8.80855 2970 ft 93 kts 244°
2026-05-05 11:19 40.97639 8.80071 2975 ft 93 kts 244°
2026-05-05 11:19 40.97374 8.79292 2970 ft 92 kts 243°
2026-05-05 11:20 40.97102 8.78530 2961 ft 91 kts 243°
2026-05-05 11:20 40.96827 8.77769 2965 ft 92 kts 244°
2026-05-05 11:20 40.96560 8.77003 2963 ft 92 kts 245°
2026-05-05 11:20 40.96299 8.76234 2956 ft 91 kts 245°
2026-05-05 11:21 40.96038 8.75478 2963 ft 91 kts 243°
2026-05-05 11:21 40.95760 8.74714 2974 ft 93 kts 244°
2026-05-05 11:21 40.95488 8.73944 2975 ft 91 kts 245°
2026-05-05 11:21 40.95234 8.73188 2962 ft 90 kts 244°
2026-05-05 11:22 40.94935 8.72470 2961 ft 90 kts 234°
2026-05-05 11:22 40.94515 8.71842 2970 ft 92 kts 229°
2026-05-05 11:22 40.94066 8.71238 2979 ft 92 kts 226°
2026-05-05 11:22 40.93620 8.70641 2978 ft 93 kts 226°
2026-05-05 11:23 40.93166 8.70039 2981 ft 92 kts 226°
2026-05-05 11:23 40.92717 8.69445 2979 ft 90 kts 226°
2026-05-05 11:23 40.92269 8.68862 2980 ft 90 kts 226°
2026-05-05 11:23 40.91836 8.68259 2981 ft 91 kts 230°
2026-05-05 11:24 40.91427 8.67609 2979 ft 93 kts 232°
2026-05-05 11:24 40.91027 8.66951 2978 ft 91 kts 232°
2026-05-05 11:24 40.90630 8.66299 2977 ft 91 kts 233°
2026-05-05 11:24 40.90239 8.65657 2976 ft 91 kts 232°
2026-05-05 11:25 40.89848 8.64996 2978 ft 91 kts 233°
2026-05-05 11:25 40.89459 8.64342 2975 ft 90 kts 233°
2026-05-05 11:25 40.89070 8.63703 2973 ft 90 kts 233°
2026-05-05 11:25 40.88683 8.63059 2964 ft 89 kts 233°
2026-05-05 11:26 40.88304 8.62422 2963 ft 86 kts 234°
2026-05-05 11:26 40.88155 8.61696 2958 ft 83 kts 260°
2026-05-05 11:26 40.88074 8.60921 2968 ft 87 kts 257°
2026-05-05 11:26 40.87966 8.60128 2974 ft 88 kts 256°
2026-05-05 11:27 40.87835 8.59328 2978 ft 90 kts 252°
2026-05-05 11:27 40.87670 8.58546 2974 ft 89 kts 251°
2026-05-05 11:27 40.87489 8.57762 2965 ft 90 kts 251°
2026-05-05 11:27 40.87322 8.56966 2974 ft 90 kts 253°
2026-05-05 11:28 40.87159 8.56167 2971 ft 91 kts 253°
2026-05-05 11:28 40.86998 8.55356 2973 ft 91 kts 252°
2026-05-05 11:28 40.86918 8.54546 2971 ft 92 kts 279°
2026-05-05 11:28 40.87092 8.53730 2975 ft 94 kts 278°
2026-05-05 11:29 40.87239 8.52897 2982 ft 91 kts 272°
2026-05-05 11:29 40.87230 8.52075 2977 ft 90 kts 258°
2026-05-05 11:29 40.87107 8.51283 2977 ft 87 kts 249°
2026-05-05 11:29 40.86653 8.50822 2971 ft 87 kts 205°
2026-05-05 11:30 40.86043 8.50554 2771 ft 105 kts 203°
2026-05-05 11:30 40.85290 8.50225 2363 ft 116 kts 203°
2026-05-05 11:30 40.84551 8.49893 2158 ft 107 kts 202°
2026-05-05 11:30 40.83869 8.49564 2056 ft 101 kts 202°
2026-05-05 11:31 40.83212 8.49268 2005 ft 99 kts 203°
2026-05-05 11:31 40.82564 8.48972 1983 ft 98 kts 202°
2026-05-05 11:31 40.81926 8.48668 1969 ft 96 kts 201°
2026-05-05 11:31 40.81307 8.48382 1964 ft 94 kts 202°
2026-05-05 11:32 40.80703 8.48099 1961 ft 90 kts 203°
2026-05-05 11:32 40.80105 8.47848 1961 ft 91 kts 203°
2026-05-05 11:32 40.79494 8.47592 1965 ft 92 kts 202°
2026-05-05 11:32 40.78879 8.47327 1973 ft 94 kts 202°
2026-05-05 11:33 40.78255 8.47035 1975 ft 95 kts 203°
2026-05-05 11:33 40.77627 8.46744 1976 ft 95 kts 203°
2026-05-05 11:33 40.77010 8.46461 1970 ft 92 kts 201°
2026-05-05 11:33 40.76398 8.46176 1973 ft 96 kts 202°
2026-05-05 11:34 40.75770 8.45875 1949 ft 95 kts 202°
2026-05-05 11:34 40.75146 8.45585 1955 ft 95 kts 202°
2026-05-05 11:34 40.74571 8.45196 1964 ft 92 kts 232°
2026-05-05 11:34 40.74575 8.44390 1958 ft 92 kts 288°
2026-05-05 11:35 40.74565 8.43579 1960 ft 93 kts 257°
2026-05-05 11:35 40.74451 8.42704 1968 ft 100 kts 259°
2026-05-05 11:35 40.74405 8.41782 1985 ft 102 kts 265°
2026-05-05 11:35 40.74411 8.40841 1983 ft 104 kts 266°
2026-05-05 11:36 40.74269 8.39941 2031 ft 103 kts 228°
2026-05-05 11:36 40.73715 8.39359 2132 ft 105 kts 215°
2026-05-05 11:36 40.73087 8.38852 2043 ft 109 kts 210°
2026-05-05 11:36 40.72462 8.38342 1954 ft 106 kts 214°
2026-05-05 11:37 40.71834 8.37869 1889 ft 108 kts 213°
2026-05-05 11:37 40.71217 8.37335 1739 ft 112 kts 215°
2026-05-05 11:37 40.70576 8.36755 1609 ft 108 kts 217°
2026-05-05 11:37 40.70019 8.36144 1546 ft 102 kts 221°
2026-05-05 11:38 40.69588 8.35487 1372 ft 92 kts 252°
2026-05-05 11:38 40.69285 8.34792 1149 ft 87 kts 225°
2026-05-05 11:38 40.68831 8.34292 1136 ft 87 kts 218°
2026-05-05 11:38 40.68371 8.33795 1121 ft 71 kts 219°
2026-05-05 11:39 40.68069 8.33375 1033 ft 62 kts 239°
2026-05-05 11:39 40.67835 8.32906 971 ft 58 kts 229°
2026-05-05 11:39 40.67562 8.32537 860 ft 59 kts 238°
2026-05-05 11:39 40.67354 8.32095 795 ft 56 kts 219°
2026-05-05 11:40 40.67172 8.31653 725 ft 58 kts 240°
2026-05-05 11:40 40.66927 8.31288 619 ft 56 kts 194°
2026-05-05 11:40 40.66586 8.31098 567 ft 49 kts 207°
2026-05-05 11:40 40.66209 8.30853 715 ft 93 kts 202°
2026-05-05 11:41 40.65691 8.30600 572 ft 64 kts 205°
2026-05-05 11:41 40.65371 8.30363 399 ft 46 kts 201°
2026-05-05 11:41 40.65073 8.30206 266 ft 46 kts 202°
2026-05-05 11:41 40.64746 8.30008 177 ft 56 kts 205°
2026-05-05 11:42 40.64407 8.29800 108 ft 50 kts 197°
2026-05-05 11:42 40.64146 8.29654 84 ft 29 kts 200°
2026-05-05 11:42 40.63984 8.29549 81 ft 25 kts 206°
2026-05-05 11:42 40.63820 8.29453 79 ft 25 kts 205°
2026-05-05 11:43 40.63701 8.29374 74 ft 15 kts 204°
2026-05-05 11:43 40.63613 8.29323 75 ft 13 kts 204°
2026-05-05 11:43 40.63544 8.29283 77 ft 10 kts 208°
2026-05-05 11:43 40.63440 8.29221 75 ft 21 kts 207°
2026-05-05 11:44 40.63344 8.29157 74 ft 14 kts 201°
2026-05-05 11:44 40.63245 8.29098 76 ft 17 kts 214°
2026-05-05 11:44 40.63140 8.29040 73 ft 17 kts 207°
2026-05-05 11:44 40.63026 8.28969 71 ft 19 kts 201°
2026-05-05 11:45 40.62897 8.28894 71 ft 21 kts 204°
2026-05-05 11:45 40.62784 8.28844 72 ft 13 kts 187°
2026-05-05 11:45 40.62681 8.28838 66 ft 16 kts 181°
2026-05-05 11:45 40.62603 8.28877 69 ft 8 kts 116°
2026-05-05 11:46 40.62598 8.28902 65 ft 0 kts 94°
2026-05-05 11:46 40.62611 8.28941 67 ft 12 kts 55°
2026-05-05 11:46 40.62695 8.29015 68 ft 18 kts 24°
2026-05-05 11:46 40.62827 8.29102 72 ft 22 kts 47°
2026-05-05 11:47 40.62884 8.29258 65 ft 13 kts 33°
2026-05-05 11:47 40.62995 8.29334 70 ft 17 kts 66°
2026-05-05 11:47 40.63001 8.29375 74 ft 0 kts 56°